Location: Newark
(13.6797°N, 8.5297°E)
Time: 21:33:49
(UTC+00:00)

LightSail 2 - Pass Details

Date: 13 December 2019
Orbit: 704 x 720 km, 24.0° (Epoch: 20 January)

Event Time Altitude Azimuth Distance (km) Brightness Sun altitude
Rises 18:24:58 0° 282° (WNW) 3,093 9.4 -20.0°
Reaches altitude 10° 18:27:30 10° 276° (W) 2,171 8.6 -20.6°
Maximum altitude 18:32:22 43° 205° (SSW) 978 6.1 -21.7°
Enters shadow 18:35:35 19° 142° (SE) 1,617 6.8 -22.5°
